This is the latest recevied weather packets stored in our database for station/object OE3XOC-11. If no packets are shown the sender has not sent any weather packets the latest 10 day(s).
| Time | Temp. | Humidity | Pressure | Rain* | Wind** | Luminosity | Snow |
|---|---|---|---|---|---|---|---|
| 1777810941 | 25° C | 29% | 961.1 hPa | - | - | - | - |
| 1777810641 | 23.89° C | 29% | 961 hPa | - | - | - | - |
| 1777810341 | 24.44° C | 29% | 961 hPa | - | - | - | - |
| 1777810041 | 24.44° C | 29% | 961.1 hPa | - | - | - | - |
| 1777809741 | 23.89° C | 30% | 961.2 hPa | - | - | - | - |
| 1777809441 | 24.44° C | 30% | 961.3 hPa | - | - | - | - |
| 1777809141 | 25° C | 29% | 961.4 hPa | - | - | - | - |
| 1777808841 | 23.89° C | 30% | 961.4 hPa | - | - | - | - |
| 1777808541 | 23.89° C | 31% | 961.4 hPa | - | - | - | - |
| 1777808241 | 23.89° C | 31% | 961.4 hPa | - | - | - | - |
| 1777807941 | 23.33° C | 31% | 961.4 hPa | - | - | - | - |
| 1777807641 | 23.89° C | 31% | 961.6 hPa | - | - | - | - |
| 1777807341 | 23.33° C | 32% | 961.6 hPa | - | - | - | - |
| 1777807041 | 23.33° C | 32% | 961.7 hPa | - | - | - | - |
| 1777806741 | 23.89° C | 31% | 961.8 hPa | - | - | - | - |
| 1777806441 | 23.33° C | 32% | 961.9 hPa | - | - | - | - |
| 1777806141 | 23.33° C | 32% | 961.8 hPa | - | - | - | - |
| 1777805841 | 23.33° C | 32% | 961.9 hPa | - | - | - | - |
| 1777805541 | 22.78° C | 33% | 962 hPa | - | - | - | - |
| 1777805241 | 23.33° C | 32% | 962 hPa | - | - | - | - |
| 1777804941 | 23.33° C | 32% | 962.1 hPa | - | - | - | - |
| 1777804641 | 22.78° C | 33% | 962.2 hPa | - | - | - | - |
| 1777804341 | 23.33° C | 34% | 962.3 hPa | - | - | - | - |
| 1777804041 | 22.78° C | 32% | 962.2 hPa | - | - | - | - |
| 1777803741 | 22.78° C | 33% | 962.2 hPa | - | - | - | - |
* Rain since midnight (hover to see other rain measurements)
** Current wind speed in m/s (hover to see current wind gust speed)